Elmira, NY

5:17 PM EST on December 05, 2019 (GMT -0500)
Elmira-Corning Regional

Weather History for KELM - May, 2019

Change the Weather History Date:

Monday, May 27, 2019

  Actual Average Record
Temperature  
Mean Temperature 62 °F -  
Max Temperature 77 °F 71 °F 93 °F (1978)
Min Temperature 46 °F 45 °F 28 °F (1969)
Degree Days  
Heating Degree Days 4    
Growing Degree Days 12 (Base 50)    
Moisture  
Dew Point 50 °F    
Average Humidity 70    
Maximum Humidity 97    
Minimum Humidity 37    
Precipitation  
Precipitation 0.00 in - - ()
Sea Level Pressure  
Sea Level Pressure 29.98 in    
Wind  
Wind Speed 4 mph (WNW)    
Max Wind Speed 12 mph    
Max Gust Speed -    
Visibility 9 miles    
Events      
Averages and records for this station are not official NWS values.
T = Trace of Precipitation, MM = Missing Value Source: NWS Daily Summary

Daily Weather History Graph

Daily Weather History Graph

Search for Another Location

Airport or City:

Astronomy

May. 27, 2019 Rise Set
Actual Time 5:36 AM EDT 8:32 PM EDT
Civil Twilight 5:03 AM EDT 9:06 PM EDT
Nautical Twilight 4:21 AM EDT 9:48 PM EDT
Astronomical Twilight 3:32 AM EDT 10:38 PM EDT
Moon 2:29 AM EDT (5/27) 1:34 PM EDT (5/27)
Length of Visible Light 16h 02m
Length of Day
14h 56m
Last Quarter, 41% of the Moon is Illuminated
May 27
Last Quarter
Jun 3
New
Jun 10
First Quarter
Jun 17
Full
Jun 25
Last Quarter

Hourly Weather History & Observations

Time (EDT) Temp. Windchill Dew Point Humidity Pressure Visibility Wind Dir Wind Speed Gust Speed Precip Events Conditions
12:53 AM 57.9 °F - 53.1 °F 84% 29.98 in 10.0 mi Calm Calm - N/A   Partly Cloudy
1:53 AM 55.0 °F - 51.1 °F 86% 29.98 in 10.0 mi SW 4.6 mph - N/A   Clear
2:53 AM 52.0 °F - 50.0 °F 93% 29.97 in 10.0 mi NNW 5.8 mph - N/A   Clear
3:53 AM 48.9 °F - 46.0 °F 90% 29.97 in 10.0 mi Calm Calm - N/A   Clear
4:36 AM 46.0 °F 44.8 °F 44.1 °F 93% 29.97 in 1.8 mi West 3.5 mph - N/A   Clear
4:46 AM 48.9 °F - 46.9 °F 93% 29.97 in 3.0 mi WSW 4.6 mph - N/A   Clear
4:53 AM 48.9 °F - 46.9 °F 93% 29.97 in 10.0 mi WSW 4.6 mph - N/A   Clear
5:53 AM 48.9 °F - 46.9 °F 93% 29.99 in 10.0 mi West 3.5 mph - N/A   Clear
6:26 AM 51.1 °F - 48.9 °F 92% 30.02 in 10.0 mi SW 3.5 mph - N/A   Scattered Clouds
6:35 AM 52.0 °F - 50.0 °F 93% 30.02 in 10.0 mi SW 6.9 mph - N/A   Mostly Cloudy
6:53 AM 52.0 °F - 51.1 °F 97% 30.02 in 3.0 mi WSW 6.9 mph - N/A   Mostly Cloudy
7:01 AM 53.1 °F - 51.1 °F 93% 30.02 in 10.0 mi WSW 4.6 mph - N/A   Scattered Clouds
7:53 AM 57.0 °F - 53.1 °F 87% 30.03 in 10.0 mi WSW 6.9 mph - N/A   Clear
8:53 AM 62.1 °F - 53.1 °F 72% 30.04 in 10.0 mi SSW 4.6 mph - N/A   Clear
9:53 AM 66.0 °F - 52.0 °F 60% 30.03 in 10.0 mi South 3.5 mph - N/A   Clear
10:53 AM 69.1 °F - 53.1 °F 57% 30.00 in 10.0 mi Calm Calm - N/A   Clear
11:53 AM 72.0 °F - 52.0 °F 49% 29.99 in 10.0 mi Variable 3.5 mph - N/A   Partly Cloudy
12:53 PM 75.0 °F - 51.1 °F 43% 29.99 in 10.0 mi North 9.2 mph - N/A   Mostly Cloudy
1:53 PM 75.9 °F - 48.0 °F 37% 29.98 in 10.0 mi Variable 5.8 mph - N/A   Clear
2:53 PM 77.0 °F - 50.0 °F 39% 29.96 in 10.0 mi NE 9.2 mph - N/A   Clear
3:53 PM 73.9 °F - 50.0 °F 43% 29.96 in 10.0 mi NNE 11.5 mph - N/A   Partly Cloudy
4:53 PM 75.9 °F - 51.1 °F 42% 29.94 in 10.0 mi NNE 6.9 mph - N/A   Clear
5:53 PM 75.9 °F - 52.0 °F 43% 29.94 in 10.0 mi NE 5.8 mph - N/A   Scattered Clouds
6:53 PM 72.0 °F - 52.0 °F 49% 29.95 in 10.0 mi North 9.2 mph - N/A   Clear
7:53 PM 66.9 °F - 51.1 °F 57% 29.95 in 10.0 mi NNE 8.1 mph - N/A   Clear
8:53 PM 66.0 °F - 48.9 °F 54% 29.96 in 10.0 mi NE 6.9 mph - N/A   Clear
9:53 PM 62.1 °F - 48.9 °F 62% 29.96 in 10.0 mi East 8.1 mph - N/A   Clear
10:53 PM 61.0 °F - 48.9 °F 64% 29.94 in 10.0 mi ENE 5.8 mph - N/A   Clear
11:53 PM 55.9 °F - 50.0 °F 80% 29.93 in 10.0 mi Calm Calm - N/A   Clear